#timestamp,LO_Frequency,Hit,StdDev 
1562958015.2,286047001.0,N
1562958035.1,286047000.6,N
1562958036.0,286047000.6,N
1562958055.8,286047000.5,N
1562958075.6,286047000.9,N
1562958095.5,286047000.5,N
1562958115.3,286047000.2,N
1562958135.2,286047000.3,N
1562958155.0,286047000.0,N
1562958155.9,286047000.0,N
1562958175.7,286047000.3,N
1562958195.6,286047000.6,N
1562958215.4,286047002.6,N
1562958235.3,286047003.1,N
1562958255.1,286047003.5,Y
1562958275.8,286047000.6,P
1562958295.7,286047000.2,N
1562958315.5,286047002.1,P
1562958335.4,286047002.3,Y
1562958355.2,286046998.3,P
1562958375.0,286047001.2,N
1562958375.9,286047001.2,N
1562958395.8,286047000.4,N
1562958415.6,286046999.3,N
1562958435.4,286046998.7,N
1562958455.3,286047001.1,N
1562958475.1,286047000.9,N
1562958495.9,286047000.7,N
1562958515.4,286047001.9,N
1562958535.2,286046998.2,N
1562958585.1,286047000.5,E
1562958595.9,286047000.7,N
1562958615.7,286046998.2,P
1562958635.6,286046998.1,N
1562958655.4,286047000.1,N
1562958675.2,286047002.5,N
1562958695.1,286047000.1,N
1562958696.0,286047000.1,N
1562958715.8,286047002.8,N
1562958735.6,286047002.5,N
1562958755.5,286047000.4,N
1562958775.3,286047000.9,N
1562958795.2,286046999.2,N
1562958815.9,286046998.1,N
1562958835.7,286046999.1,N
1562958855.6,286046999.3,N
1562958875.4,286047000.4,N
1562958895.3,286047000.7,N
1562958915.1,286047000.1,N
1562958916.0,286047000.1,N
1562958935.8,286046999.7,N
1562958955.7,286047002.3,N
1562958975.5,286047000.4,N
1562958995.3,286047000.2,N
1562959015.2,286047000.8,N
1562959035.0,286046998.2,N
1562959035.9,286046998.2,N
1562959055.8,286046999.6,N
1562959075.6,286046998.7,N
1562959095.4,286047001.2,N
1562959115.3,286047000.8,N
1562959135.1,286047000.9,N
1562959155.9,286046996.9,N
1562959175.7,286047001.2,N
1562959195.5,286047001.1,N
1562959215.4,286047000.7,N
1562959235.2,286047000.4,N
1562959255.0,286046999.7,N
1562959255.9,286046999.7,N
1562959275.8,286047001.1,N
1562959295.6,286046999.2,N
1562959315.5,286046997.5,N
1562959335.3,286046999.1,N
1562959355.1,286046996.7,N
1562959375.9,286046999.1,N
1562959395.7,286047000.6,N
1562959415.5,286047000.2,N
1562959435.4,286046999.8,N
1562959455.2,286047000.0,N
1562959475.1,286047000.5,N
1562959476.0,286047000.5,N
1562959495.8,286047000.9,N
1562959515.6,286047000.3,N
1562959535.5,286047000.6,N
1562959555.3,286047000.5,N
1562959575.2,286046999.9,N
1562959595.9,286046998.6,N
1562959615.7,286046998.9,N
1562959635.6,286046999.3,N
1562959685.4,286046998.9,E
1562959695.3,286047001.1,N
1562959715.2,286047000.0,P
1562959735.0,286047001.1,N
1562959735.9,286047001.1,N
1562959755.8,286046996.9,Y
1562959775.6,286046997.5,P
1562959795.4,286046996.8,N
1562959815.3,286046999.6,N
1562959835.1,286046996.5,N
1562959855.9,286046996.8,N
1562959875.7,286046997.9,N
1562959895.5,286046995.3,Y
1562959915.4,286046998.0,P
1562959935.2,286046998.0,P
1562959955.0,286046998.9,P
1562959956.0,286046998.9,N
1562959975.8,286046997.1,Y
1562959995.1,286046998.4,P
1562959996.0,286046998.4,P
1562960015.8,286046999.5,P
1562960035.6,286046999.2,N
1562960055.5,286046997.0,Y
1562960075.3,286047000.4,P
1562960095.2,286047001.0,N
1562960115.0,286047000.0,N
1562960115.9,286047000.0,N
1562960135.8,286047000.6,N
1562960155.6,286046999.5,N
1562960175.4,286046996.6,Y
1562960195.3,286046996.5,P
1562960215.1,286046999.3,N
1562960235.8,286046999.0,N
1562960255.7,286046998.3,N
1562960275.5,286046999.5,N
1562960295.4,286046998.6,N
1562960315.2,286046998.5,N
1562960335.0,286046998.1,N
1562960335.9,286046998.1,N
1562960355.8,286046998.3,N
1562960375.6,286047000.9,N
1562960395.5,286047000.2,N
1562960415.3,286047001.4,N
1562960435.1,286047002.1,N
1562960455.9,286047002.3,N
1562960475.7,286046999.7,N
1562960495.5,286047002.1,N
1562960515.4,286047002.6,N
1562960535.2,286047002.8,N
1562960555.1,286047002.7,N
1562960556.0,286047002.7,N
1562960575.8,286047000.1,N
1562960595.6,286047000.5,N
1562960615.5,286047000.3,N
1562960635.3,286047000.0,N
1562960655.2,286047002.5,N
1562960675.9,286047001.5,N
1562960695.7,286047001.7,N
1562960715.6,286047004.4,N
1562960735.4,286047001.3,N
1562960755.8,286047001.4,N
1562960775.7,286047001.8,N
1562960795.5,286047002.1,N
1562960815.3,286047001.3,N
1562960835.2,286047001.3,N
1562960855.0,286047001.6,N
1562960855.9,286047001.6,N
1562960875.8,286047003.9,N
1562960895.6,286047002.3,N
1562960915.4,286047002.2,N
1562960935.3,286047001.7,N
1562960955.1,286047001.3,N
1562960975.9,286047004.1,Y
1562960995.7,286047000.2,P
1562961015.5,286046999.9,N
1562961035.4,286047002.0,N
1562961055.7,286047001.4,N
1562961075.6,286047001.5,N
1562961095.4,286047002.8,Y
1562961115.2,286046999.0,P
1562961135.1,286046996.9,N
1562961136.0,286046996.9,N
1562961155.8,286046999.6,N
1562961175.7,286046998.4,N
1562961195.5,286046998.3,N
1562961215.3,286046998.2,N
1562961235.2,286046998.4,N
1562961255.0,286046998.6,N
1562961255.9,286046998.6,N
1562961275.7,286046998.5,N
1562961295.6,286047000.5,N
1562961315.4,286046999.8,N
1562961335.3,286047004.1,Y
1562961355.1,286047003.3,P
1562961375.8,286047004.1,N
1562961395.7,286047001.3,N
1562961415.5,286047001.5,N
1562961435.4,286047003.8,N
1562961455.2,286047004.8,N
1562961475.0,286047005.9,Y
1562961475.9,286047005.9,P
1562961495.8,286047001.1,N
1562961515.6,286047000.2,N
1562961535.5,286047002.3,N
1562961555.3,286047002.9,N
1562961575.1,286047006.0,Y
1562961595.9,286047004.2,P
